TimeEST,TemperatureF,Dew PointF,Humidity,Sea Level PressureIn,VisibilityMPH,Wind Direction,Wind SpeedMPH,Gust SpeedMPH,PrecipitationIn,Events,Conditions,WindDirDegrees,DateUTC
12:15 AM,55.4,55.4,100,30.17,10.0,Calm,Calm,-,N/A,,Unknown,0,2012-12-04 05:15:00
12:35 AM,53.6,53.6,100,30.17,5.0,Calm,Calm,-,N/A,,Unknown,0,2012-12-04 05:35:00
12:55 AM,53.6,53.6,100,30.17,2.0,Calm,Calm,-,N/A,,Unknown,0,2012-12-04 05:55:00
1:15 AM,51.8,51.8,100,30.17,0.8,Calm,Calm,-,N/A,,Unknown,0,2012-12-04 06:15:00
1:35 AM,51.8,51.8,100,30.17,4.0,Calm,Calm,-,N/A,,Unknown,0,2012-12-04 06:35:00
1:55 AM,53.6,53.6,100,30.17,10.0,Calm,Calm,-,N/A,,Unknown,0,2012-12-04 06:55:00
2:15 AM,53.6,53.6,100,30.17,10.0,Calm,Calm,-,N/A,,Unknown,0,2012-12-04 07:15:00
2:35 AM,53.6,53.6,100,30.18,10.0,Calm,Calm,-,N/A,,Unknown,0,2012-12-04 07:35:00
2:55 AM,53.6,53.6,100,30.18,10.0,Calm,Calm,-,N/A,,Unknown,0,2012-12-04 07:55:00
3:15 AM,53.6,53.6,100,30.18,10.0,Calm,Calm,-,N/A,,Unknown,0,2012-12-04 08:15:00
3:55 AM,53.6,53.6,100,30.18,10.0,Calm,Calm,-,N/A,,Unknown,0,2012-12-04 08:55:00
4:15 AM,55.4,55.4,100,30.17,10.0,Calm,Calm,-,N/A,,Unknown,0,2012-12-04 09:15:00
4:35 AM,55.4,55.4,100,30.17,10.0,WSW,5.8,-,N/A,,Unknown,240,2012-12-04 09:35:00
4:55 AM,55.4,55.4,100,30.17,10.0,SW,5.8,-,N/A,,Unknown,230,2012-12-04 09:55:00
5:15 AM,55.4,53.6,94,30.17,10.0,SW,3.5,-,N/A,,Unknown,230,2012-12-04 10:15:00
5:35 AM,55.4,53.6,94,30.17,10.0,SW,4.6,-,N/A,,Unknown,230,2012-12-04 10:35:00
5:55 AM,55.4,53.6,94,30.17,10.0,Calm,Calm,-,N/A,,Unknown,0,2012-12-04 10:55:00
6:15 AM,55.4,53.6,94,30.17,10.0,SW,5.8,-,N/A,,Unknown,230,2012-12-04 11:15:00
6:35 AM,55.4,53.6,94,30.17,10.0,SW,6.9,-,N/A,,Unknown,220,2012-12-04 11:35:00
6:55 AM,55.4,53.6,94,30.17,10.0,SW,5.8,-,N/A,,Unknown,230,2012-12-04 11:55:00
7:15 AM,53.6,53.6,100,30.17,10.0,WSW,3.5,-,N/A,,Unknown,240,2012-12-04 12:15:00
7:35 AM,55.4,53.6,94,30.17,10.0,SW,4.6,-,N/A,,Unknown,230,2012-12-04 12:35:00
7:55 AM,55.4,53.6,94,30.17,10.0,SW,4.6,-,N/A,,Unknown,230,2012-12-04 12:55:00
8:15 AM,55.4,53.6,94,30.17,10.0,SW,5.8,-,N/A,,Unknown,220,2012-12-04 13:15:00
8:35 AM,55.4,51.8,88,30.17,10.0,WSW,5.8,-,N/A,,Unknown,240,2012-12-04 13:35:00
8:55 AM,57.2,53.6,88,30.17,10.0,WSW,4.6,-,N/A,,Unknown,240,2012-12-04 13:55:00
9:15 AM,59.0,53.6,82,30.17,10.0,WSW,6.9,-,N/A,,Unknown,240,2012-12-04 14:15:00
9:35 AM,60.8,53.6,77,30.17,10.0,WSW,5.8,-,N/A,,Unknown,240,2012-12-04 14:35:00
9:55 AM,60.8,53.6,77,30.17,10.0,SW,8.1,-,N/A,,Unknown,230,2012-12-04 14:55:00
10:15 AM,62.6,53.6,72,30.16,10.0,WSW,9.2,-,N/A,,Unknown,240,2012-12-04 15:15:00
10:35 AM,62.6,53.6,72,30.16,10.0,SW,11.5,17.3,N/A,,Unknown,230,2012-12-04 15:35:00
10:55 AM,64.4,53.6,68,30.15,10.0,SSW,15.0,20.7,N/A,,Unknown,210,2012-12-04 15:55:00
11:15 AM,64.4,53.6,68,30.14,10.0,WSW,12.7,19.6,N/A,,Unknown,240,2012-12-04 16:15:00
11:35 AM,64.4,53.6,68,30.12,10.0,SW,12.7,17.3,N/A,,Unknown,220,2012-12-04 16:35:00
11:55 AM,64.4,53.6,68,30.10,10.0,SW,12.7,19.6,N/A,,Unknown,220,2012-12-04 16:55:00
12:15 PM,66.2,53.6,64,30.08,10.0,SW,11.5,19.6,N/A,,Unknown,220,2012-12-04 17:15:00
12:35 PM,66.2,53.6,64,30.08,10.0,SW,11.5,21.9,N/A,,Unknown,220,2012-12-04 17:35:00
12:55 PM,66.2,53.6,64,30.07,10.0,WSW,10.4,18.4,N/A,,Unknown,240,2012-12-04 17:55:00
1:15 PM,66.2,53.6,64,30.06,10.0,WSW,11.5,23.0,N/A,,Unknown,240,2012-12-04 18:15:00
1:35 PM,64.4,53.6,68,30.05,10.0,SW,16.1,21.9,N/A,,Unknown,220,2012-12-04 18:35:00
1:55 PM,64.4,53.6,68,30.04,10.0,SW,15.0,19.6,N/A,,Unknown,220,2012-12-04 18:55:00
2:15 PM,66.2,53.6,64,30.04,10.0,WSW,11.5,-,N/A,,Unknown,240,2012-12-04 19:15:00
2:35 PM,64.4,53.6,68,30.03,10.0,SW,11.5,-,N/A,,Unknown,220,2012-12-04 19:35:00
2:55 PM,64.4,53.6,68,30.03,10.0,SW,12.7,19.6,N/A,,Unknown,230,2012-12-04 19:55:00
3:15 PM,64.4,53.6,68,30.03,10.0,WSW,12.7,21.9,N/A,,Unknown,240,2012-12-04 20:15:00
3:35 PM,64.4,53.6,68,30.02,10.0,SW,9.2,16.1,N/A,,Unknown,230,2012-12-04 20:35:00
3:55 PM,64.4,53.6,68,30.02,10.0,SW,15.0,23.0,N/A,,Unknown,230,2012-12-04 20:55:00
4:15 PM,64.4,55.4,73,30.03,10.0,WSW,19.6,25.3,N/A,,Unknown,240,2012-12-04 21:15:00
4:35 PM,62.6,57.2,82,30.04,10.0,SW,16.1,26.5,N/A,,Unknown,230,2012-12-04 21:35:00
4:55 PM,60.8,57.2,88,30.03,10.0,SW,10.4,20.7,N/A,,Unknown,220,2012-12-04 21:55:00
5:15 PM,60.8,57.2,88,30.03,10.0,WSW,13.8,18.4,N/A,,Unknown,240,2012-12-04 22:15:00
5:55 PM,60.8,57.2,88,30.02,10.0,WSW,15.0,24.2,N/A,,Unknown,240,2012-12-04 22:55:00
6:15 PM,60.8,57.2,88,30.01,10.0,WSW,18.4,28.8,N/A,,Unknown,240,2012-12-04 23:15:00
6:35 PM,60.8,57.2,88,30.01,10.0,WSW,15.0,23.0,N/A,,Unknown,240,2012-12-04 23:35:00
6:55 PM,60.8,57.2,88,30.00,10.0,WSW,19.6,26.5,N/A,,Unknown,240,2012-12-04 23:55:00
7:15 PM,60.8,57.2,88,30.00,10.0,WSW,18.4,25.3,N/A,,Unknown,240,2012-12-05 00:15:00
7:35 PM,60.8,57.2,88,29.99,5.0,WSW,16.1,25.3,0.01,,Unknown,240,2012-12-05 00:35:00
7:55 PM,60.8,57.2,88,29.99,10.0,SW,15.0,20.7,0.01,,Unknown,230,2012-12-05 00:55:00
8:15 PM,60.8,57.2,88,29.98,10.0,SW,12.7,21.9,N/A,,Unknown,230,2012-12-05 01:15:00
8:35 PM,60.8,57.2,88,29.98,10.0,WSW,13.8,19.6,N/A,,Unknown,250,2012-12-05 01:35:00
8:55 PM,59.0,57.2,94,29.98,7.0,WSW,13.8,21.9,0.01,,Unknown,250,2012-12-05 01:55:00
9:15 PM,55.4,55.4,100,30.02,5.0,NW,12.7,21.9,0.09,,Unknown,320,2012-12-05 02:15:00
9:35 PM,51.8,51.8,100,30.03,10.0,North,8.1,21.9,0.12,,Unknown,350,2012-12-05 02:35:00
9:55 PM,50.0,50.0,100,30.05,10.0,North,8.1,17.3,0.13,,Unknown,360,2012-12-05 02:55:00
10:15 PM,48.2,48.2,100,30.07,10.0,North,13.8,21.9,0.01,,Unknown,350,2012-12-05 03:15:00
10:35 PM,46.4,46.4,100,30.08,10.0,NNW,9.2,18.4,0.02,,Unknown,340,2012-12-05 03:35:00
10:55 PM,46.4,46.4,100,30.09,10.0,Calm,Calm,-,0.06,,Unknown,0,2012-12-05 03:55:00
11:15 PM,46.4,46.4,100,30.09,10.0,Calm,Calm,-,0.03,,Unknown,0,2012-12-05 04:15:00
11:35 PM,46.4,46.4,100,30.08,10.0,Calm,Calm,-,0.04,,Unknown,0,2012-12-05 04:35:00
11:55 PM,44.6,44.6,100,30.09,10.0,WNW,3.5,-,0.07,,Unknown,290,2012-12-05 04:55:00